TimePDT,TemperatureF,Dew PointF,Humidity,Sea Level PressureIn,VisibilityMPH,Wind Direction,Wind SpeedMPH,Gust SpeedMPH,PrecipitationIn,Events,Conditions,WindDirDegrees,DateUTC
12:53 AM,53.1,34.0,48,30.31,10.0,North,8.1,-,N/A,,Clear,350,2012-10-04 07:53:00
1:53 AM,54.0,37.9,55,30.31,10.0,NNW,8.1,-,N/A,,Clear,340,2012-10-04 08:53:00
2:53 AM,52.0,39.0,61,30.31,10.0,Variable,4.6,-,N/A,,Clear,0,2012-10-04 09:53:00
3:53 AM,52.0,42.1,69,30.31,10.0,Variable,4.6,-,N/A,,Clear,0,2012-10-04 10:53:00
4:53 AM,52.0,41.0,66,30.30,10.0,NNW,8.1,-,N/A,,Clear,340,2012-10-04 11:53:00
5:53 AM,52.0,42.1,69,30.31,10.0,North,9.2,16.1,N/A,,Clear,350,2012-10-04 12:53:00
6:53 AM,51.1,42.1,71,30.31,10.0,NNW,5.8,-,N/A,,Clear,340,2012-10-04 13:53:00
7:53 AM,51.1,42.1,71,30.32,10.0,North,8.1,-,N/A,,Clear,350,2012-10-04 14:53:00
8:53 AM,53.1,43.0,69,30.32,10.0,NNW,8.1,-,N/A,,Clear,340,2012-10-04 15:53:00
9:53 AM,55.0,43.0,64,30.33,10.0,North,8.1,-,N/A,,Clear,350,2012-10-04 16:53:00
10:53 AM,55.9,43.0,62,30.34,10.0,North,12.7,18.4,N/A,,Clear,360,2012-10-04 17:53:00
11:53 AM,57.9,41.0,53,30.33,10.0,North,10.4,23.0,N/A,,Clear,350,2012-10-04 18:53:00
12:53 PM,60.1,39.9,47,30.33,10.0,Variable,4.6,-,N/A,,Clear,0,2012-10-04 19:53:00
1:53 PM,60.1,35.1,39,30.32,10.0,North,11.5,-,N/A,,Clear,350,2012-10-04 20:53:00
2:53 PM,60.1,35.1,39,30.31,10.0,North,11.5,16.1,N/A,,Clear,360,2012-10-04 21:53:00
3:53 PM,61.0,36.0,39,30.30,10.0,North,10.4,-,N/A,,Clear,350,2012-10-04 22:53:00
4:53 PM,62.1,33.1,34,30.29,10.0,North,6.9,-,N/A,,Clear,350,2012-10-04 23:53:00
5:53 PM,59.0,36.0,42,30.28,10.0,NW,3.5,-,N/A,,Clear,320,2012-10-05 00:53:00
6:53 PM,53.1,36.0,52,30.28,10.0,West,3.5,-,N/A,,Clear,270,2012-10-05 01:53:00
7:53 PM,51.1,35.1,54,30.27,10.0,WNW,3.5,-,N/A,,Clear,300,2012-10-05 02:53:00
8:53 PM,53.1,35.1,50,30.27,10.0,NW,3.5,-,N/A,,Clear,310,2012-10-05 03:53:00
9:53 PM,50.0,35.1,57,30.28,10.0,Variable,3.5,-,N/A,,Clear,0,2012-10-05 04:53:00
10:53 PM,51.1,36.0,56,30.29,10.0,Calm,Calm,-,N/A,,Clear,0,2012-10-05 05:53:00
11:53 PM,46.0,36.0,68,30.29,10.0,Calm,Calm,-,N/A,,Clear,0,2012-10-05 06:53:00